Tracking 20041 objects as of 22-Nov-2019
Live streaming from Space Station
objects crossing your sky now

NOAA 16 DEB

Track NOAA 16 DEB now!
10-day predictions


NORAD ID: 41264
Int'l Code: 2000-055FQ
Perigee: 854.1 km
Apogee: 859.5 km
Inclination: 98.8 °
Period: 101.9 minutes
Semi major axis: 7227 km
RCS: Unknown
Launch date: September 21, 2000
Source: United States (US)
Launch site: AIR FORCE WESTERN TEST RANGE (AFWTR)

Note: This is SATELLITE DEBRIS
aabbcc
Your satellite tracking list
Your tracking list is empty




NASA's NSSDC Master Catalog

Two Line Element Set (TLE):
1 41264U 00055FQ  19326.03328846  .00000551  00000-0  31974-3 0  9990
2 41264  98.7912  31.7778 0003767 157.7285 202.4052 14.12845457201892
Source of the keplerian elements: AFSPC